When you browse on this site, cookies collect data to enhance your experience and personalize the content and advertising you see.
Visit our Privacy Policy to learn more. By continuing to use the site, you agree to this use of cookies and data.
  • Em Portugal
  • Lista de países
  • Para 7 dias
  • Temperatura da água
  • Mapa do tempo
  • Widgets de tempo
  • user-avatar
    Iniciar Sessão

    Previsão horária em Mtvara

    Hoje, 29 Maio, Sexta-feira

    Tempo Temperatura Precipitação Vento Pressão Humidade
    00:00 +23°C° 0 mm 2 m/s 762 mmHg 96%
    01:00 +21°C° 0 mm 2 m/s 761 mmHg 96%
    02:00 +21°C° 0 mm 2 m/s 761 mmHg 97%
    03:00 +21°C° 0 mm 2 m/s 761 mmHg 97%
    04:00 +21°C° 0 mm 2 m/s 761 mmHg 97%
    05:00 +21°C° 0 mm 3 m/s 761 mmHg 97%
    06:00 +21°C° 0 mm 3 m/s 761 mmHg 98%
    07:00 +24°C° 0 mm 3 m/s 762 mmHg 90%
    08:00 +25°C° 0 mm 3 m/s 762 mmHg 82%
    09:00 +28°C° 0 mm 2 m/s 762 mmHg 75%
    10:00 +30°C° 0 mm 2 m/s 762 mmHg 65%
    11:00 +32°C° 0 mm 2 m/s 762 mmHg 55%
    12:00 +34°C° 0 mm 2 m/s 762 mmHg 44%
    13:00 +34°C° 0 mm 3 m/s 761 mmHg 46%
    14:00 +34°C° 0 mm 4 m/s 761 mmHg 48%
    15:00 +34°C° 0 mm 5 m/s 760 mmHg 50%
    16:00 +32°C° 0 mm 5 m/s 760 mmHg 58%
    17:00 +29°C° 0 mm 5 m/s 760 mmHg 66%
    18:00 +27°C° 0 mm 5 m/s 760 mmHg 74%
    19:00 +26°C° 0 mm 5 m/s 761 mmHg 82%
    20:00 +25°C° 0 mm 4 m/s 761 mmHg 89%
    21:00 +23°C° 0 mm 4 m/s 762 mmHg 97%
    22:00 +23°C° 0 mm 4 m/s 761 mmHg 97%
    23:00 +22°C° 0 mm 4 m/s 761 mmHg 98%

    Amanhã, 30 Maio, Sábado

    Tempo Temperatura Precipitação Vento Pressão Humidade
    00:00 +22°C° 0 mm 4 m/s 761 mmHg 98%
    01:00 +22°C° 0 mm 4 m/s 761 mmHg 98%
    02:00 +22°C° 0 mm 3 m/s 760 mmHg 98%
    03:00 +22°C° 0 mm 3 m/s 760 mmHg 99%
    04:00 +22°C° 0 mm 4 m/s 760 mmHg 98%
    05:00 +23°C° 0 mm 4 m/s 761 mmHg 97%
    06:00 +23°C° 0 mm 4 m/s 761 mmHg 96%
    07:00 +26°C° 0 mm 4 m/s 761 mmHg 91%
    08:00 +27°C° 0 mm 4 m/s 762 mmHg 86%
    09:00 +28°C° 0 mm 5 m/s 763 mmHg 80%
    10:00 +30°C° 0 mm 4 m/s 762 mmHg 71%
    11:00 +32°C° 0 mm 4 m/s 762 mmHg 62%
    12:00 +34°C° 0 mm 4 m/s 762 mmHg 52%
    13:00 +34°C° 0 mm 5 m/s 761 mmHg 52%
    14:00 +34°C° 0 mm 5 m/s 761 mmHg 51%
    15:00 +34°C° 0 mm 6 m/s 761 mmHg 51%
    16:00 +33°C° 0 mm 6 m/s 761 mmHg 57%
    17:00 +30°C° 0 mm 6 m/s 761 mmHg 64%
    18:00 +29°C° 0 mm 6 m/s 761 mmHg 71%
    19:00 +28°C° 0 mm 5 m/s 762 mmHg 77%
    20:00 +26°C° 0 mm 5 m/s 762 mmHg 84%
    21:00 +25°C° 0 mm 5 m/s 762 mmHg 90%
    22:00 +25°C° 0 mm 5 m/s 762 mmHg 92%
    23:00 +25°C° 0 mm 5 m/s 762 mmHg 94%

    Depois de amanhã, 31 Maio, Domingo

    Tempo Temperatura Precipitação Vento Pressão Humidade
    00:00 +23°C° 0 mm 5 m/s 762 mmHg 96%
    01:00 +23°C° 0 mm 5 m/s 762 mmHg 97%
    02:00 +23°C° 0 mm 5 m/s 761 mmHg 97%
    03:00 +23°C° 0 mm 5 m/s 761 mmHg 97%
    04:00 +23°C° 0 mm 5 m/s 761 mmHg 95%
    05:00 +23°C° 0 mm 5 m/s 762 mmHg 93%
    06:00 +23°C° 0 mm 6 m/s 762 mmHg 91%
    07:00 +24°C° 0 mm 6 m/s 762 mmHg 85%
    08:00 +26°C° 0 mm 6 m/s 763 mmHg 79%
    09:00 +27°C° 0 mm 6 m/s 763 mmHg 72%
    10:00 +28°C° 0 mm 6 m/s 763 mmHg 67%
    11:00 +29°C° 0 mm 6 m/s 763 mmHg 62%
    12:00 +32°C° 0 mm 6 m/s 763 mmHg 58%
    13:00 +32°C° 0 mm 5 m/s 762 mmHg 55%
    14:00 +33°C° 0 mm 5 m/s 762 mmHg 53%
    15:00 +34°C° 0 mm 5 m/s 761 mmHg 50%
    16:00 +32°C° 0 mm 5 m/s 761 mmHg 55%
    17:00 +30°C° 0 mm 6 m/s 762 mmHg 59%
    18:00 +28°C° 0 mm 6 m/s 762 mmHg 63%
    19:00 +27°C° 0 mm 6 m/s 762 mmHg 68%
    20:00 +26°C° 0 mm 6 m/s 762 mmHg 73%
    21:00 +24°C° 0 mm 6 m/s 763 mmHg 79%
    22:00 +24°C° 0 mm 6 m/s 763 mmHg 80%
    23:00 +24°C° 0 mm 6 m/s 763 mmHg 81%

    1 Junho, Segunda-feira

    Tempo Temperatura Precipitação Vento Pressão Humidade
    00:00 +23°C° 0 mm 6 m/s 763 mmHg 82%
    01:00 +23°C° 0 mm 6 m/s 762 mmHg 80%
    02:00 +23°C° 0 mm 6 m/s 762 mmHg 79%
    03:00 +23°C° 0 mm 6 m/s 762 mmHg 78%
    04:00 +23°C° 0 mm 6 m/s 762 mmHg 76%
    05:00 +23°C° 0 mm 6 m/s 762 mmHg 75%
    06:00 +22°C° 0 mm 7 m/s 762 mmHg 73%
    07:00 +23°C° 0 mm 7 m/s 763 mmHg 69%
    08:00 +24°C° 0 mm 7 m/s 763 mmHg 64%
    09:00 +26°C° 0 mm 7 m/s 764 mmHg 59%
    10:00 +28°C° 0 mm 6 m/s 763 mmHg 56%
    11:00 +30°C° 0 mm 6 m/s 763 mmHg 53%
    12:00 +32°C° 0 mm 6 m/s 763 mmHg 50%
    13:00 +32°C° 0 mm 6 m/s 762 mmHg 52%
    14:00 +32°C° 0 mm 5 m/s 762 mmHg 53%
    15:00 +32°C° 0 mm 5 m/s 761 mmHg 55%
    16:00 +29°C° 0 mm 5 m/s 761 mmHg 59%
    17:00 +28°C° 0 mm 5 m/s 762 mmHg 62%
    18:00 +27°C° 0 mm 5 m/s 762 mmHg 65%
    19:00 +27°C° 0.1 mm 5 m/s 762 mmHg 69%
    20:00 +26°C° 0.1 mm 5 m/s 763 mmHg 74%
    21:00 +25°C° 0.1 mm 5 m/s 763 mmHg 78%
    22:00 +25°C° 0.1 mm 5 m/s 763 mmHg 79%
    23:00 +25°C° 0.1 mm 5 m/s 763 mmHg 79%

    2 Junho, Terça-feira

    Tempo Temperatura Precipitação Vento Pressão Humidade
    00:00 +25°C° 0.1 mm 5 m/s 762 mmHg 80%
    01:00 +23°C° 0.1 mm 5 m/s 762 mmHg 82%
    02:00 +23°C° 0.1 mm 6 m/s 762 mmHg 84%
    03:00 +23°C° 0.1 mm 6 m/s 761 mmHg 86%
    04:00 +23°C° 0 mm 6 m/s 761 mmHg 87%
    05:00 +23°C° 0 mm 6 m/s 762 mmHg 89%
    06:00 +23°C° 0 mm 6 m/s 762 mmHg 90%
    07:00 +23°C° 0 mm 6 m/s 762 mmHg 87%
    08:00 +23°C° 0 mm 6 m/s 763 mmHg 85%
    09:00 +23°C° 0 mm 6 m/s 763 mmHg 82%
    10:00 +26°C° 0 mm 6 m/s 763 mmHg 75%
    11:00 +28°C° 0 mm 5 m/s 763 mmHg 67%
    12:00 +29°C° 0 mm 5 m/s 763 mmHg 59%
    13:00 +30°C° 0.1 mm 5 m/s 762 mmHg 60%
    14:00 +30°C° 0.1 mm 5 m/s 762 mmHg 60%
    15:00 +32°C° 0.1 mm 5 m/s 761 mmHg 60%
    16:00 +30°C° 0.4 mm 6 m/s 761 mmHg 64%
    17:00 +29°C° 0.4 mm 6 m/s 761 mmHg 69%
    18:00 +28°C° 0.4 mm 6 m/s 761 mmHg 74%
    19:00 +27°C° 0.1 mm 6 m/s 762 mmHg 76%
    20:00 +27°C° 0.1 mm 6 m/s 762 mmHg 79%
    21:00 +26°C° 0.1 mm 5 m/s 762 mmHg 81%
    22:00 +26°C° 0.1 mm 5 m/s 762 mmHg 83%
    23:00 +25°C° 0.1 mm 5 m/s 762 mmHg 86%

    3 Junho, Quarta-feira

    Tempo Temperatura Precipitação Vento Pressão Humidade
    00:00 +25°C° 0.1 mm 5 m/s 762 mmHg 88%
    01:00 +23°C° 0 mm 5 m/s 761 mmHg 89%
    02:00 +23°C° 0 mm 5 m/s 761 mmHg 91%
    03:00 +23°C° 0 mm 5 m/s 761 mmHg 92%
    04:00 +22°C° 0 mm 5 m/s 761 mmHg 92%
    05:00 +22°C° 0 mm 5 m/s 761 mmHg 93%
    06:00 +22°C° 0 mm 5 m/s 761 mmHg 93%
    07:00 +25°C° 0 mm 5 m/s 762 mmHg 86%
    08:00 +26°C° 0 mm 5 m/s 762 mmHg 78%
    09:00 +27°C° 0 mm 5 m/s 763 mmHg 71%
    10:00 +28°C° 0.1 mm 5 m/s 762 mmHg 68%
    11:00 +29°C° 0.1 mm 5 m/s 762 mmHg 66%
    12:00 +30°C° 0.1 mm 5 m/s 762 mmHg 63%
    13:00 +30°C° 0.3 mm 5 m/s 761 mmHg 69%
    14:00 +29°C° 0.3 mm 6 m/s 761 mmHg 74%
    15:00 +29°C° 0.3 mm 6 m/s 761 mmHg 80%
    16:00 +28°C° 0.5 mm 6 m/s 761 mmHg 84%
    17:00 +26°C° 0.5 mm 6 m/s 761 mmHg 88%
    18:00 +25°C° 0.5 mm 5 m/s 761 mmHg 93%
    19:00 +25°C° 0 mm 5 m/s 762 mmHg 94%
    20:00 +23°C° 0 mm 5 m/s 762 mmHg 94%
    21:00 +23°C° 0 mm 5 m/s 762 mmHg 95%
    22:00 +23°C° 0 mm 5 m/s 762 mmHg 96%
    23:00 +23°C° 0 mm 5 m/s 762 mmHg 96%
    Mostrar mais